KJ4UBX-11 Weather Reports


time (UTC)temp
C
wind
direction
speed
KPH
gust
KPH
rain 1hr
cm
rain 24hr
cm
rain mn
cm
humidity
%
barometer
mb
20260508045958 9 0.0 0.0 0.00 0.00 0.00 52 1005.9
20260508045015 9 0.0 0.0 0.00 0.00 0.00 46 1005.9
20260508044033 10 0.0 0.0 0.00 0.00 0.00 46 1006.0
20260508043051 10 0.0 0.0 0.00 0.00 0.00 45 1005.9
20260508042108 10 0.0 0.0 0.00 0.00 0.00 46 1006.0
20260508041125 10 0.0 0.0 0.00 0.00 0.00 48 1006.1
20260508040142 10 0.0 0.0 0.00 0.00 0.00 46 1006.1
20260508035159 11 0.0 0.0 0.00 0.00 0.00 43 1006.0
20260508034217 11 0.0 0.0 0.00 0.00 0.00 43 1006.0
20260508033234 11 0.0 0.0 0.00 0.00 0.00 44 1006.0
20260508032252 11 0.0 0.0 0.00 0.00 0.00 45 1005.9
20260508031310 12 0.0 0.0 0.00 0.00 0.00 43 1006.1
20260508030328 12 0.0 0.0 0.00 0.00 0.00 40 1006.0
20260508025345 12 0.0 0.0 0.00 0.00 0.00 39 1005.9
20260508024402 12 0.0 0.0 0.00 0.00 0.00 39 1005.9
20260508023420 12 0.0 0.0 0.00 0.00 0.00 39 1005.8
20260508022437 13 0.0 0.0 0.00 0.00 0.00 39 1005.6
20260508021455 13 0.0 0.0 0.00 0.00 0.00 37 1005.6
20260508020512 13 0.0 0.0 0.00 0.00 0.00 37 1005.6
20260508015529 13 0.0 0.0 0.00 0.00 0.00 38 1005.4
20260508014547 13 0.0 0.0 0.00 0.00 0.00 37 1005.3
20260508013603 14 0.0 0.0 0.00 0.00 0.00 35 1005.3
20260508012621 14 0.0 0.0 0.00 0.00 0.00 36 1005.0
20260508011638 15 0.0 0.0 0.00 0.00 0.00 35 1005.0
20260508010656 15 0.0 0.0 0.00 0.00 0.00 36 1004.9
20260508005712 15 0.0 0.0 0.00 0.00 0.00 34 1004.9
20260508004731 15 0.0 0.0 0.00 0.00 0.00 33 1004.7
20260508003745 15 0.0 0.0 0.00 0.00 0.00 35 1004.5
20260508002803 16 0.0 0.0 0.00 0.00 0.00 33 1004.2
20260508001820 16 0.0 0.0 0.00 0.00 0.00 34 1004.0
20260508000838 16 0.0 0.0 0.00 0.00 0.00 32 1003.9
20260507235855 17 0.0 0.0 0.00 0.00 0.00 30 1003.7
20260507234912 17 0.0 0.0 0.00 0.00 0.00 30 1003.7
20260507233930 17 0.0 0.0 0.00 0.00 0.00 29 1003.6
20260507232947 18 0.0 0.0 0.00 0.00 0.00 30 1003.5
20260507232005 18 0.0 0.0 0.00 0.00 0.00 29 1003.5
20260507231022 18 0.0 0.0 0.00 0.00 0.00 29 1003.2
20260507230038 18 0.0 0.0 0.00 0.00 0.00 33 1003.1
20260507225055 18 0.0 0.0 0.00 0.00 0.00 29 1002.9
20260507224114 20 0.0 0.0 0.00 0.00 0.00 28 1002.8
20260507223132 20 0.0 0.0 0.00 0.00 0.00 28 1002.7
20260507222149 20 0.0 0.0 0.00 0.00 0.00 29 1002.6
20260507221206 21 0.0 0.0 0.00 0.00 0.00 40 1002.5
20260507220224 21 0.0 0.0 0.00 0.00 0.00 37 1002.5
20260507215241 21 0.0 0.0 0.00 0.00 0.00 39 1002.4
20260507214259 21 0.0 0.0 0.00 0.00 0.00 32 1002.6
20260507213316 21 0.0 0.0 0.00 0.00 0.00 29 1002.5
20260507212332 21 0.0 0.0 0.00 0.00 0.00 35 1002.5
20260507211350 22 0.0 0.0 0.00 0.00 0.00 35 1002.5
20260507210406 21 0.0 0.0 0.00 0.00 0.00 26 1002.4
20260507205422 22 0.0 0.0 0.00 0.00 0.00 33 1002.3
20260507204441 22 0.0 0.0 0.00 0.00 0.00 33 1002.3
20260507203457 22 0.0 0.0 0.00 0.00 0.00 28 1002.4
20260507202513 22 0.0 0.0 0.00 0.00 0.00 28 1002.4
20260507201530 22 0.0 0.0 0.00 0.00 0.00 26 1002.3
20260507200547 22 0.0 0.0 0.00 0.00 0.00 28 1002.3
20260507195604 22 0.0 0.0 0.00 0.00 0.00 32 1002.3
20260507194621 22 0.0 0.0 0.00 0.00 0.00 30 1002.3
20260507193637 22 0.0 0.0 0.00 0.00 0.00 27 1002.3
20260507192654 22 0.0 0.0 0.00 0.00 0.00 37 1002.5
20260507191710 23 0.0 0.0 0.00 0.00 0.00 32 1002.6
20260507190727 22 0.0 0.0 0.00 0.00 0.00 34 1002.6
20260507185744 23 0.0 0.0 0.00 0.00 0.00 32 1002.6
20260507184801 23 0.0 0.0 0.00 0.00 0.00 39 1002.6
20260507183817 23 0.0 0.0 0.00 0.00 0.00 33 1002.5
20260507182833 23 0.0 0.0 0.00 0.00 0.00 35 1002.6
20260507181852 23 0.0 0.0 0.00 0.00 0.00 34 1002.5
20260507180906 22 0.0 0.0 0.00 0.00 0.00 39 1002.6
20260507175925 22 0.0 0.0 0.00 0.00 0.00 32 1002.8
20260507174941 23 0.0 0.0 0.00 0.00 0.00 37 1002.9
20260507173958 23 0.0 0.0 0.00 0.00 0.00 35 1002.9
20260507173010 21 0.0 0.0 0.00 0.00 0.00 41 1003.0
20260507172026 21 0.0 0.0 0.00 0.00 0.00 45 1003.2
20260507171046 21 0.0 0.0 0.00 0.00 0.00 47 1003.3
20260507170103 22 0.0 0.0 0.00 0.00 0.00 43 1003.4
20260507165120 21 0.0 0.0 0.00 0.00 0.00 45 1003.6
20260507164138 21 0.0 0.0 0.00 0.00 0.00 42 1003.6
20260507163158 22 0.0 0.0 0.00 0.00 0.00 40 1003.6
20260507162214 24 0.0 0.0 0.00 0.00 0.00 43 1003.8
20260507161232 24 0.0 0.0 0.00 0.00 0.00 41 1003.9
20260507160253 25 0.0 0.0 0.00 0.00 0.00 37 1003.9
20260507155313 28 0.0 0.0 0.00 0.00 0.00 31 1004.2
20260507154344 35 0.0 0.0 0.00 0.00 0.00 22 1004.1
20260507153404 36 0.0 0.0 0.00 0.00 0.00 20 1004.3
20260507152422 40 0.0 0.0 0.00 0.00 0.00 19 1004.3
20260507151439 38 0.0 0.0 0.00 0.00 0.00 18 1004.3
20260507150457 38 0.0 0.0 0.00 0.00 0.00 19 1004.3
20260507145508 37 0.0 0.0 0.00 0.00 0.00 19 1004.3
20260507144525 38 0.0 0.0 0.00 0.00 0.00 19 1004.4
20260507143542 39 0.0 0.0 0.00 0.00 0.00 18 1004.4
20260507142557 38 0.0 0.0 0.00 0.00 0.00 19 1004.7
20260507141619 39 0.0 0.0 0.00 0.00 0.00 19 1004.9
20260507140631 36 0.0 0.0 0.00 0.00 0.00 20 1004.9
20260507135647 37 0.0 0.0 0.00 0.00 0.00 19 1004.8
20260507134703 36 0.0 0.0 0.00 0.00 0.00 20 1005.0
20260507133721 35 0.0 0.0 0.00 0.00 0.00 20 1005.0
20260507132735 35 0.0 0.0 0.00 0.00 0.00 22 1005.0
20260507131757 35 0.0 0.0 0.00 0.00 0.00 23 1005.0
20260507130808 33 0.0 0.0 0.00 0.00 0.00 22 1005.0
20260507125824 33 0.0 0.0 0.00 0.00 0.00 27 1005.0
20260507124833 30 0.0 0.0 0.00 0.00 0.00 28 1005.2
20260507123848 27 0.0 0.0 0.00 0.00 0.00 30 1005.3
20260507122904 28 0.0 0.0 0.00 0.00 0.00 32 1005.2
20260507121912 27 0.0 0.0 0.00 0.00 0.00 32 1005.1
20260507120922 23 0.0 0.0 0.00 0.00 0.00 40 1005.0
20260507115931 17 0.0 0.0 0.00 0.00 0.00 50 1005.3
20260507114947 17 0.0 0.0 0.00 0.00 0.00 55 1005.3
20260507114000 15 0.0 0.0 0.00 0.00 0.00 61 1005.2
20260507113016 14 0.0 0.0 0.00 0.00 0.00 64 1005.1
20260507112034 15 0.0 0.0 0.00 0.00 0.00 64 1005.4
20260507111049 14 0.0 0.0 0.00 0.00 0.00 68 1005.5
20260507110105 14 0.0 0.0 0.00 0.00 0.00 68 1005.8
20260507105120 13 0.0 0.0 0.00 0.00 0.00 75 1005.4
20260507104137 13 0.0 0.0 0.00 0.00 0.00 76 1005.8
20260507103154 13 0.0 0.0 0.00 0.00 0.00 77 1005.7
20260507102210 13 0.0 0.0 0.00 0.00 0.00 75 1005.9
20260507101226 12 0.0 0.0 0.00 0.00 0.00 74 1005.5
20260507100243 12 0.0 0.0 0.00 0.00 0.00 73 1005.7
20260507095300 12 0.0 0.0 0.00 0.00 0.00 74 1005.5
20260507094317 12 0.0 0.0 0.00 0.00 0.00 73 1005.1
20260507093334 12 0.0 0.0 0.00 0.00 0.00 71 1005.4
20260507092351 12 0.0 0.0 0.00 0.00 0.00 73 1004.5
20260507091408 12 0.0 0.0 0.00 0.00 0.00 72 1004.7
20260507090426 13 0.0 0.0 0.00 0.00 0.00 71 1005.1
20260507085443 13 0.0 0.0 0.00 0.00 0.00 70 1005.1
20260507084500 13 0.0 0.0 0.00 0.00 0.00 71 1005.2
20260507083518 13 0.0 0.0 0.00 0.00 0.00 72 1005.1
20260507082534 13 0.0 0.0 0.00 0.00 0.00 69 1004.7
20260507081553 15 0.0 0.0 0.00 0.00 0.00 67 1004.4
20260507080608 13 0.0 0.0 0.00 0.00 0.00 77 1005.1
20260507075626 13 0.0 0.0 0.00 0.00 0.00 77 1004.5
20260507074642 13 0.0 0.0 0.00 0.00 0.00 83 1004.6
20260507073659 13 0.0 0.0 0.00 0.00 0.00 83 1004.6
20260507072715 13 0.0 0.0 0.00 0.00 0.00 86 1004.5
20260507071732 13 0.0 0.0 0.00 0.00 0.00 86 1004.3
20260507070749 13 0.0 0.0 0.00 0.00 0.00 84 1004.2
20260507065806 14 0.0 0.0 0.00 0.00 0.00 84 1004.2
20260507064824 14 0.0 0.0 0.00 0.00 0.00 86 1004.2
20260507063840 14 0.0 0.0 0.00 0.00 0.00 87 1003.9
20260507062858 14 0.0 0.0 0.00 0.00 0.00 85 1004.0
20260507061914 14 0.0 0.0 0.00 0.00 0.00 88 1003.7
20260507060931 14 0.0 0.0 0.00 0.00 0.00 85 1003.5
20260507055949 14 0.0 0.0 0.00 0.00 0.00 87 1003.8
20260507055006 15 0.0 0.0 0.00 0.00 0.00 82 1003.5
20260507054022 15 0.0 0.0 0.00 0.00 0.00 83 1003.5
20260507053039 15 0.0 0.0 0.00 0.00 0.00 88 1003.7
20260507052056 15 0.0 0.0 0.00 0.00 0.00 88 1003.7
20260507051113 15 0.0 0.0 0.00 0.00 0.00 83 1003.4